Regional Weather Roundup
Issued by NWS

Home | Current Version | Previous Version | Text Only | Print | Product List | Glossary Off
Versions: 1 2 3 4 5 6 7 8 9 10 11 12 13 14 15 16 17 18 19 20 21 22 23 24 25 26 27 28 29 30 31 32 33 34 35 36 37 38 39 40 41 42 43 44 45 46 47 48 49 50

000
ASUS43 KLOT 281310
RWRIL

ILLINOIS REGIONAL WEATHER ROUNDUP
NATIONAL WEATHER SERVICE CHICAGO/ROMEOVILLE IL
700 AM CST FRI NOV 28 2014

NOTE: "FAIR" INDICATES FEW OR NO CLOUDS BELOW 12,000 FEET WITH NO
SIGNIFICANT WEATHER AND/OR OBSTRUCTIONS TO VISIBILITY.

* THESE STATIONS ARE NOT UNDER NWS QUALITY CONTROL. THEY ALSO MAY NOT
  REPORT WEATHER SUCH AS PRECIPITATION OR FOG.

ILZ001-002-007-009-015-016-024-281400-
NORTHWEST ILLINOIS

CITY           SKY/WX    TMP DP  RH WIND       PRES   REMARKS
MOLINE         PTCLDY    18   9  68 SE10      30.19F WCI   6
STERLING*      PTCLDY    18  10  73 SE8       30.23F WCI   7
SAVANNA*       PTCLDY    18  12  78 SE10      30.22S WCI   6
$$

ILZ003-004-008-010-011-017-018-281400-
NORTH CENTRAL ILLINOIS

CITY           SKY/WX    TMP DP  RH WIND       PRES   REMARKS
ROCKFORD       CLOUDY    18  11  74 SE13      30.26F WCI   5
FREEPORT*      CLOUDY    16  10  77 SE13      30.23F WCI   2
ROCHELLE*      CLOUDY    17  13  84 SE13      30.25F WCI   3
DE KALB*       CLOUDY    16  11  80 SE13      30.24F WCI   3
PERU*          CLOUDY    19  15  82 S14       30.27F WCI   6
$$

ILZ005-006-012>014-019>023-281400-
NORTHEAST ILLINOIS

CITY           SKY/WX    TMP DP  RH WIND       PRES   REMARKS
CHICAGO-OHARE  FLURRIES  20  13  74 S10       30.28F WCI   9
CHICAGO-MIDWAY FLURRIES  22  13  68 S9        30.29F WCI  12
AURORA         CLOUDY    19  11  70 S10       30.28F WCI   7
LANSING*       CLOUDY    20  16  81 S7        30.30F WCI  12
JOLIET*        CLOUDY    19  14  81 S8        30.30S WCI   9
WAUKEGAN       LGT SNOW  19  12  74 S7        30.26F WCI  10
DUPAGE AIRPORT CLOUDY    19  12  74 S9        30.27S WCI   8
KANKAKEE*      FLURRIES N/A N/A N/A SE6       30.32F
WHEELING       LGT SNOW  20  13  74 S9        30.30F WCI   9
MORRIS*        CLOUDY    19  16  88 S9        30.29S WCI   9
ROMEOVILLE*    CLOUDY    20  15  82 S9        30.29S WCI   9
NORTHERLY ISL    N/A     21  13  71 S9          N/A  WCI  11
$$

LMZ740>746-281400-
SOUTHERN LAKE MICHIGAN

STATION/POSITION SKY/WX   TEMP    WIND        PRES    VSBY  WAVE
                          AIR SEA DIR/SP/G                  HT/PER
                          (F)     (DEG/KT/KT) (MB)    (MI)  (FT/S)
SOUTHERN BUOY              26 42  200/ 12/ 16 1026.1F         1/ 6
WAUKEGAN HARBOR            21     200/ 11/ 14   N/A
HARRISON CRIB              21     170/ 12/ 16   N/A
BURNHAM HARBOR             22     190/  7/ 10   N/A
CALUMET HARBOR             21     150/  8/ 12 1024.7F
MICHIGAN CITY              22     160/  7/  9   N/A
$$

ILZ025>027-034>036-040-047-049-050-058-095>099-281400-
WEST-CENTRAL ILLINOIS

CITY           SKY/WX    TMP DP  RH WIND       PRES   REMARKS
QUINCY         CLEAR     23  19  85 SE12      30.16F WCI  12
GALESBURG*     PTCLDY    16  11  79 SE10      30.19F WCI   4
MACOMB*        PTCLDY    17  13  86 SE14      30.22F WCI   3
JACKSONVILLE*  MOCLDY    23  18  82 SE13      30.22F WCI  11
PITTSFIELD*    PTCLDY    24  21  87 SE10      30.20F WCI  14
$$

ILZ028>032-037-038-041>044-048-051>054-059>061-281400-
CENTRAL ILLINOIS

CITY           SKY/WX    TMP DP  RH WIND       PRES   REMARKS
PONTIAC        CLOUDY    21  16  79 S12       30.31R WCI   9
BLOOMINGTON    PTCLDY    18  12  77 S8        30.28F WCI   8
DECATUR        MOCLDY    20  12  71 SE9       30.29F WCI   9
PEORIA         CLEAR     19   9  65 SE6       30.26F WCI  11
LACON*         CLOUDY    19  12  73 S9        30.26F WCI   9
LINCOLN*       PTCLDY    19  12  73 SE8       30.30F WCI   9
SPRINGFIELD    PTCLDY    21  15  78 SE15      30.25F WCI   8
TAYLORVILLE    PTCLDY    19  14  79 SE13      30.26F WCI   7
$$

ILZ033-039-045-046-055>057-062-063-281400-
EAST-CENTRAL ILLINOIS

CITY           SKY/WX    TMP DP  RH WIND       PRES   REMARKS
CHAMPAIGN      CLOUDY    21  13  71 SE12      30.31F WCI   9
DANVILLE*      CLOUDY    20  16  82 S7        30.31F WCI  11
RANTOUL*       CLOUDY    22  15  75 S9        30.31F WCI  12
MATTOON        CLOUDY    22  14  71 S9        30.31F WCI  12
PARIS*         CLOUDY    22  17  82 S9        30.35F WCI  11
$$

ILZ079-100>102-281400-
SOUTHWEST ILLINOIS

CITY           SKY/WX    TMP DP  RH WIND       PRES   REMARKS
ALTON          PTCLDY    25  21  86 SE14      30.27F WCI  13
BELLEVILLE     CLEAR     24  24  98 SE8       30.28F WCI  16
CAHOKIA*       CLEAR     27  23  85 S9        30.27F WCI  18
SPARTA*        CLEAR     25  23  93 SE9       30.31F WCI  15
$$

ILZ064>066-069>071-074>076-080>082-084>086-088>090-092>094-281400-
SOUTH-CENTRAL ILLINOIS

CITY           SKY/WX    TMP DP  RH WIND       PRES   REMARKS
CARBONDALE     CLEAR     26  22  84 SE6       30.36S WCI  19
CAIRO*         CLEAR     32  26  77 S9        30.38S WCI  24
EFFINGHAM*     MOCLDY    21  15  77 SE7       30.34F WCI  12
MARION         CLEAR     27  25  93 SE6       30.38R WCI  20
MT. VERNON     CLEAR     25  19  80 CALM      30.36F
CENTRALIA*     CLEAR     23  20  87 SE9       30.32F WCI  13
SALEM*           N/A     25  21  84 SE8       30.33F WCI  16
METROPOLIS*    CLEAR     27  27 100 CALM        N/A  FOG
$$

ILZ067-068-072-073-078-083-087-091-281400-
SOUTHEAST ILLINOIS

CITY           SKY/WX    TMP DP  RH WIND       PRES   REMARKS
LAWRENCEVILLE  MOCLDY    25  21  85 SE7       30.39F WCI  17
FLORA*         MOCLDY    21  19  92 SE5       30.36F WCI  15
FAIRFIELD*     PTCLDY    24  21  89 CALM      30.36F
HARRISBURG*    CLEAR     27  26  96 E5        30.40S FOG     WCI  22
ROBINSON*      MOCLDY    24  21  87 SE6       30.39F WCI  17
CARMI*         PTCLDY    28  28  99 W7        30.39S WCI  21
$$

ABBREVIATIONS USED IN REMARKS
   TC - TEMPERATURE IN CELSIUS
  WCI - WIND CHILL INDEX
   HX - HEAT INDEX
  VSB - VISIBILITY
$$



USA.gov is the U.S. government's official web portal to all federal, state and local government web resources and services.